TimeCDT,TemperatureF,Dew PointF,Humidity,Sea Level PressureIn,VisibilityMPH,Wind Direction,Wind SpeedMPH,Gust SpeedMPH,PrecipitationIn,Events,Conditions,WindDirDegrees,DateUTC
12:53 AM,55.9,44.1,64,29.86,10.0,NW,10.4,-,N/A,,Mostly Cloudy,310,2014-04-08 05:53:00
1:53 AM,53.1,43.0,69,29.85,10.0,WNW,6.9,-,N/A,,Clear,300,2014-04-08 06:53:00
2:53 AM,52.0,43.0,71,29.84,10.0,NW,11.5,-,N/A,,Clear,320,2014-04-08 07:53:00
3:53 AM,50.0,43.0,77,29.83,10.0,NW,6.9,-,N/A,,Clear,310,2014-04-08 08:53:00
4:53 AM,48.0,43.0,83,29.83,10.0,WNW,5.8,-,N/A,,Clear,290,2014-04-08 09:53:00
5:53 AM,46.9,43.0,86,29.83,10.0,WNW,4.6,-,N/A,,Clear,290,2014-04-08 10:53:00
6:53 AM,46.0,42.1,86,29.86,10.0,WNW,5.8,-,N/A,,Clear,290,2014-04-08 11:53:00
7:53 AM,50.0,44.1,80,29.88,10.0,NW,8.1,-,N/A,,Clear,310,2014-04-08 12:53:00
8:53 AM,55.0,44.1,67,29.87,10.0,NW,8.1,-,N/A,,Clear,310,2014-04-08 13:53:00
9:53 AM,57.0,43.0,59,29.88,10.0,North,11.5,-,N/A,,Clear,360,2014-04-08 14:53:00
10:53 AM,62.1,42.1,48,29.86,10.0,NNW,6.9,-,N/A,,Clear,330,2014-04-08 15:53:00
11:53 AM,64.9,41.0,42,29.85,10.0,NW,13.8,19.6,N/A,,Clear,310,2014-04-08 16:53:00
12:53 PM,66.0,39.0,37,29.81,10.0,WNW,6.9,18.4,N/A,,Clear,300,2014-04-08 17:53:00
1:53 PM,66.0,37.9,36,29.78,10.0,Variable,3.5,-,N/A,,Partly Cloudy,0,2014-04-08 18:53:00
2:53 PM,68.0,39.0,35,29.76,10.0,NNW,8.1,-,N/A,,Scattered Clouds,340,2014-04-08 19:53:00
3:53 PM,68.0,37.9,33,29.76,10.0,NNW,9.2,-,N/A,,Mostly Cloudy,330,2014-04-08 20:53:00
4:53 PM,64.0,39.9,41,29.78,10.0,WNW,8.1,-,N/A,,Overcast,290,2014-04-08 21:53:00
5:53 PM,64.0,44.1,48,29.79,10.0,West,5.8,-,N/A,,Overcast,280,2014-04-08 22:53:00
6:53 PM,55.9,46.0,69,29.82,10.0,West,16.1,23.0,N/A,,Clear,280,2014-04-08 23:53:00
7:53 PM,53.1,46.0,77,29.83,10.0,West,5.8,-,N/A,,Clear,270,2014-04-09 00:53:00
8:53 PM,53.1,46.9,80,29.87,10.0,West,8.1,-,N/A,,Mostly Cloudy,280,2014-04-09 01:53:00
9:53 PM,53.1,46.9,80,29.91,10.0,West,5.8,-,N/A,,Overcast,260,2014-04-09 02:53:00
10:53 PM,53.1,46.0,77,29.91,10.0,West,8.1,-,N/A,,Overcast,270,2014-04-09 03:53:00
11:53 PM,53.1,46.0,77,29.92,10.0,West,6.9,-,N/A,,Overcast,280,2014-04-09 04:53:00